Washington, PA

9:11 AM EST on December 07, 2019 (GMT -0500)
Washington County

Weather History for KAFJ - October, 2019

Change the Weather History Date:

Tuesday, October 22, 2019

  Actual Average Record
Temperature  
Mean Temperature 58 °F -  
Max Temperature 66 °F 57 °F 84 °F (2007)
Min Temperature 46 °F 37 °F 28 °F (1997)
Degree Days  
Heating Degree Days 6    
Growing Degree Days 8 (Base 50)    
Moisture  
Dew Point 53 °F    
Average Humidity 88    
Maximum Humidity 100    
Minimum Humidity 65    
Precipitation  
Precipitation 0.38 in - - ()
Sea Level Pressure  
Sea Level Pressure 29.84 in    
Wind  
Wind Speed 6 mph ()    
Max Wind Speed 16 mph    
Max Gust Speed 24 mph    
Visibility 8.1 miles    
Events Rain    
Averages and records for this station are not official NWS values.
T = Trace of Precipitation, MM = Missing Value Source: Averaged Metar Reports

Daily Weather History Graph

Daily Weather History Graph

Search for Another Location

Airport or City:

Astronomy

Oct. 22, 2019 Rise Set
Actual Time 7:39 AM EDT 6:31 PM EDT
Civil Twilight 7:11 AM EDT 6:59 PM EDT
Nautical Twilight 6:39 AM EDT 7:30 PM EDT
Astronomical Twilight 6:08 AM EDT 8:02 PM EDT
Moon 12:46 AM EDT (10/22) 3:40 PM EDT (10/22)
Length of Visible Light 11h 47m
Length of Day
10h 52m
Last Quarter, 37% of the Moon is Illuminated
Oct 22
Last Quarter
Oct 27
New
Nov 4
First Quarter
Nov 12
Full
Nov 19
Last Quarter

Hourly Weather History & Observations

Time (EDT) Temp. Dew Point Humidity Pressure Visibility Wind Dir Wind Speed Gust Speed Precip Events Conditions
12:56 AM 66.0 °F 54.0 °F 65% 29.85 in 10.0 mi SSE 5.8 mph - N/A   Mostly Cloudy
1:56 AM 64.9 °F 54.0 °F 68% 29.83 in 10.0 mi South 6.9 mph - N/A   Scattered Clouds
2:56 AM 64.9 °F 55.0 °F 70% 29.82 in 10.0 mi South 6.9 mph - N/A   Overcast
3:56 AM 64.0 °F 55.0 °F 73% 29.81 in 10.0 mi SSW 3.5 mph - 0.00 in   Overcast
4:56 AM 61.0 °F 57.9 °F 90% 29.81 in 10.0 mi Calm Calm - 0.00 in Rain Light Rain
5:56 AM 60.1 °F 57.9 °F 93% 29.81 in 10.0 mi Calm Calm - 0.00 in   Overcast
6:39 AM 59.0 °F 57.2 °F 94% 29.82 in 5.0 mi Calm Calm - 0.01 in Rain Light Rain
6:56 AM 59.0 °F 57.9 °F 96% 29.81 in 6.0 mi Calm Calm - 0.01 in Rain Light Rain
7:39 AM 59.0 °F 57.2 °F 94% 29.81 in 4.0 mi Calm Calm - 0.01 in Rain Light Rain
7:49 AM 59.0 °F 59.0 °F 100% 29.82 in 4.0 mi WNW 5.8 mph - 0.02 in Rain Rain
7:56 AM 59.0 °F 57.9 °F 96% 29.80 in 5.0 mi WNW 8.1 mph - 0.04 in Rain Rain
8:23 AM 57.2 °F 55.4 °F 94% 29.82 in 2.0 mi West 15.0 mph - 0.06 in Rain Light Rain
8:32 AM 57.2 °F 55.4 °F 94% 29.83 in 2.0 mi West 10.4 mph - 0.07 in Rain Light Rain
8:40 AM 55.4 °F 55.4 °F 100% 29.84 in 2.5 mi West 11.5 mph - 0.08 in Rain Rain
8:48 AM 55.4 °F 55.4 °F 100% 29.86 in 3.0 mi West 16.1 mph 19.6 mph 0.11 in Rain Heavy Rain
8:56 AM 55.9 °F 54.0 °F 93% 29.85 in 4.0 mi West 15.0 mph 24.2 mph 0.15 in Rain Rain
9:22 AM 55.4 °F 55.4 °F 100% 29.88 in 3.0 mi West 9.2 mph - 0.07 in Rain Rain
10:56 AM 55.0 °F 55.0 °F 100% 29.82 in 10.0 mi SSE 6.9 mph - 0.07 in Rain Rain
11:09 AM 55.4 °F 55.4 °F 100% 29.83 in 10.0 mi South 5.8 mph - 0.02 in Rain Light Rain
11:19 AM 55.4 °F 55.4 °F 100% 29.84 in 10.0 mi South 9.2 mph - 0.02 in Rain Light Rain
11:38 AM 55.4 °F 53.6 °F 94% 29.86 in 10.0 mi SSW 9.2 mph - 0.06 in Rain Rain
11:56 AM 54.0 °F 52.0 °F 93% 29.85 in 10.0 mi South 10.4 mph 19.6 mph 0.08 in Rain Rain
12:39 PM 53.6 °F 51.8 °F 94% 29.84 in 10.0 mi SSW 6.9 mph - 0.03 in   Overcast
12:56 PM 54.0 °F 53.1 °F 97% 29.83 in 10.0 mi SSW 6.9 mph - 0.03 in   Overcast
1:12 PM 55.4 °F 53.6 °F 94% 29.83 in 10.0 mi South 9.2 mph - N/A   Overcast
1:56 PM 55.0 °F 53.1 °F 93% 29.83 in 10.0 mi SSW 8.1 mph - N/A   Mostly Cloudy
2:21 PM 55.4 °F 53.6 °F 94% 29.83 in 10.0 mi SSW 6.9 mph - N/A   Mostly Cloudy
2:56 PM 57.0 °F 54.0 °F 89% 29.80 in 10.0 mi South 8.1 mph - N/A   Overcast
3:56 PM 59.0 °F 52.0 °F 78% 29.78 in 10.0 mi SSW 10.4 mph 20.7 mph N/A   Mostly Cloudy
4:17 PM 60.8 °F 51.8 °F 72% 29.79 in 10.0 mi SW 13.8 mph - N/A   Mostly Cloudy
4:56 PM 61.0 °F 52.0 °F 72% 29.79 in 10.0 mi SSW 9.2 mph - N/A   Partly Cloudy
5:56 PM 59.0 °F 50.0 °F 72% 29.81 in 10.0 mi SSW 8.1 mph - N/A   Clear
6:56 PM 55.9 °F 50.0 °F 80% 29.83 in 10.0 mi South 3.5 mph - N/A   Partly Cloudy
7:56 PM 54.0 °F 50.0 °F 86% 29.86 in 10.0 mi SSW 3.5 mph - N/A   Scattered Clouds
8:56 PM 52.0 °F 48.9 °F 89% 29.88 in 9.0 mi WSW 4.6 mph - N/A   Partly Cloudy
9:56 PM 53.1 °F 43.0 °F 69% 29.91 in 10.0 mi WSW 4.6 mph - N/A   Partly Cloudy
10:56 PM 51.1 °F 42.1 °F 71% 29.93 in 10.0 mi WSW 4.6 mph - N/A   Scattered Clouds
11:56 PM 46.0 °F 43.0 °F 89% 29.93 in 10.0 mi Calm Calm - N/A   Clear